Location: Carter Cabin
(41.0271°N, 122.9339°W)
Time: 15:43:03
(UTC+00:00)

Cosmos 2056 Rocket - Pass Details

Date: 13 April 2024
Orbit: 739 x 799 km, 74.0° (Epoch: 21 May)

Event Time Altitude Azimuth Distance (km) Brightness Sun altitude
Rises 12:54:50 0° 333° (NNW) 3,292 6.7 -8.0°
Reaches altitude 10° 12:57:20 10° 326° (NW) 2,365 5.9 -7.6°
Maximum altitude 13:02:20 40° 258° (WSW) 1,163 4.0 -6.7°
Drops below altitude 10° 13:07:19 10° 190° (S) 2,364 5.8 -5.8°
Sets 13:09:50 0° 183° (S) 3,289 6.6 -5.4°
